Location: Lastadie
(53.4167°N, 14.5667°E)
Time: 16:38:42
(UTC+00:00)

Daily predictions for brighter satellites

Satellite Brightness Start Highest point End
(mag) Time Altitude Azimuth Time Altitude Azimuth Time Altitude Azimuth
SJ-11-01 4.4 16:18:35 10° SSE 16:23:19 89° ENE 16:28:06 10° NNW
Cosmos 1633 4.2 16:25:05 10° ESE 16:26:52 14° E 16:28:40 10° NE
SL-16 R/B 2.7 16:21:51 10° S 16:27:08 42° ESE 16:32:27 10° NE
Cosmos 1703 3.7 16:23:29 10° SSW 16:27:17 65° WNW 16:31:07 10° N
Cosmos 1190 Rocket 4.4 16:23:13 10° S 16:28:17 47° ESE 16:33:20 10° NE
CZ-4 R/B 3.0 16:25:58 10° E 16:28:18 15° NE 16:30:36 10° NNE
CZ-2C R/B 3.5 16:25:28 10° N 16:30:54 57° WNW 16:36:22 10° SW
RESURS DK-1 2.5 16:27:52 10° NNW 16:31:57 54° NE 16:35:59 10° SE
SL-4 R/B 1.9 16:29:52 10° W 16:33:18 66° S 16:36:55 10° E
CZ-2D R/B 4.4 16:30:09 10° S 16:33:48 48° W 16:37:27 10° NNW
Meteor 1-21 Rocket 4.2 16:28:36 10° S 16:34:11 69° E 16:39:43 10° NNE
Cosmos 1943 Rocket 4.0 16:31:51 10° NNW 16:35:08 15° NNE 16:38:25 10° NE
Cosmos 1980 Rocket 2.7 16:30:37 10° SW 16:36:15 62° NW 16:41:56 10° NNE
DMSP B5D2-2 4.4 16:32:31 10° NNE 16:37:39 48° E 16:42:44 10° S
Cosmos 1408 2.5 16:35:07 10° S 16:38:28 57° E 16:41:53 10° NNE
Meteor 2-1 Rocket 4.3 16:34:47 10° NNW 16:40:37 89° WSW 16:46:16 10° S
SL-08 R/B 3.5 16:35:45 10° NNE 16:40:40 61° ESE 16:45:34 10° S
Cosmos 1697 Rocket 4.0 16:35:41 10° WSW 16:40:55 37° NW 16:46:09 10° NNE
Cosmos 44 4.0 16:38:14 10° WSW 16:42:27 43° NW 16:46:53 10° NE
H-2A R/B 4.4 16:38:54 10° SSW 16:43:30 30° W 16:48:12 10° NNW
Cosmos 2369 4.4 16:38:45 10° SW 16:44:19 56° NW 16:49:57 10° NNE
Cosmos 1655 Rocket 4.3 16:39:03 10° NNW 16:45:19 74° W 16:51:30 10° S
Cosmos 724 4.4 16:40:01 10° SW 16:45:59 83° SE 16:52:08 10° NE
Cosmos 468 Rocket 4.0 16:42:42 10° NNW 16:47:56 85° ENE 16:53:03 10° SSE
NOAA 6 4.2 16:42:54 10° SSE 16:48:04 84° WSW 16:53:18 10° NNW
Radarsat Rocket 4.3 16:42:35 10° SSE 16:48:48 88° WSW 16:55:53 10° NNW
Lacrosse 5 2.5 16:44:42 10° SSW 16:49:28 42° SE 16:53:52 12° ENE
Okean O Rocket 2.7 16:48:05 10° ESE 16:51:36 24° ENE 16:55:08 10° N
Meteor PRIRODA 4.2 16:49:54 10° S 16:53:24 59° WSW 16:56:56 10° NNW
PAYLOAD B 4.3 16:51:00 10° SE 16:56:20 53° ENE 17:01:41 10° N
Cosmos 1340 Rocket 3.2 16:52:38 10° SSW 16:56:31 66° WNW 17:00:29 10° N
CZ-4B R/B 3.0 16:53:09 10° S 16:57:07 75° WSW 17:00:54 10° NNW
USA 215 4.0 16:50:46 10° SE 16:57:10 55° SW 17:03:37 10° WNW
DELTA 2 DEB (DPAF) 4.0 16:52:49 10° NNE 16:57:14 75° ESE 17:01:37 10° S
Okean-O 4.4 16:56:48 12° ENE 16:57:34 13° NE 16:59:33 10° NNE
HJ-1C 4.5 16:58:58 16° ENE 16:58:58 16° ENE 17:00:33 10° NNE
Cosmos 2237 4.4 16:53:35 10° S 16:59:10 57° ESE 17:04:47 10° NE
SKYMED 2 3.8 16:55:56 10° NNE 17:00:11 48° E 17:04:23 10° S
Cosmos 1763 Rocket 4.0 16:56:40 10° NNW 17:01:49 65° WSW 17:06:52 10° SSE
ATLAS 2AS CENTAUR R/B 3.5 16:55:34 10° NW 17:02:24 54° SW 17:08:51 10° SSE
Meteor 1-27 4.3 16:57:12 10° N 17:02:56 57° ENE 17:08:33 10° SSE
Cosmos 1607 4.3 16:58:19 10° WSW 17:04:25 65° NW 17:10:38 10° NE
Cosmos 1954 Rocket 4.0 16:59:37 10° S 17:04:47 63° ESE 17:09:57 10° NNE
Cosmos 2058 Rocket 3.3 17:01:15 10° N 17:05:29 45° ENE 17:09:45 10° SSE
BREEZE-M DEB (TANK) 3.9 17:04:43 10° WSW 17:07:43 34° S 17:13:48 10° ESE
Cosmos 1869 3.4 17:04:17 10° N 17:08:05 51° ENE 17:11:56 10° SSE
Cosmos 1553 Rocket 4.2 17:02:49 10° SSE 17:08:32 44° E 17:14:22 10° NNE
YAOGAN 1 2.8 17:05:52 10° SE 17:10:01 48° ENE 17:14:11 10° N
Cosmos 540 Rocket 3.6 17:05:01 10° NNW 17:10:12 82° WSW 17:15:19 10° SSE
COSMOS 2455 3.7 17:05:38 10° WSW 17:11:25 46° NW 17:17:15 10° NE
Cosmos 1844 Rocket 3.1 17:07:25 10° NW 17:12:58 67° WSW 17:18:29 10° SSE
Meteor 2-12 Rocket 4.4 17:06:51 10° N 17:12:58 78° ENE 17:19:02 10° SSE
Cosmos 841 Rocket 3.4 17:11:06 10° NNW 17:16:25 75° ENE 17:21:40 10° SSE
APEX 4.3 17:11:16 10° SW 17:17:16 77° NW 17:22:38 10° NNE
Cosmos 2228 4.5 17:13:42 10° NNW 17:17:40 40° W 17:21:37 10° SSW
USA 281 4.0 17:11:23 10° NNE 17:17:44 52° NW 17:24:03 10° SW
ATLAS CENTAUR R/B 2.7 17:13:35 10° WSW 17:17:58 40° NNW 17:21:53 12° NE
PSLV R/B 3.6 17:17:39 10° SSE 17:21:18 63° ENE 17:25:02 10° N
IRIDIUM 104 4.3 17:21:21 10° N 17:26:34 66° E 17:31:46 10° SSE
Cosmos 1892 3.2 17:24:58 10° SSW 17:28:40 61° WNW 17:32:26 10° N
Cosmos 1606 Rocket 4.4 17:24:57 10° NNW 17:29:10 53° W 17:33:22 10° S
CZ-4B R/B 3.1 17:25:01 10° SSE 17:30:22 68° ENE 17:35:50 10° NNW
CZ-4B DEB 4.4 17:25:15 10° S 17:30:41 74° WSW 17:36:12 10° NNW
Cosmos 1825 2.0 17:27:56 10° S 17:31:38 89° WNW 17:35:22 10° N
SJ-6B 3.6 17:34:43 29° ENE 17:35:11 30° ENE 17:38:43 10° N
Lacrosse 5 rocket 2.5 17:32:12 10° WNW 17:35:28 34° SW 17:38:49 10° SSE
Cosmos-2242 3.8 17:32:03 10° N 17:35:43 28° ENE 17:35:46 28° ENE
IRIDIUM 114 4.2 17:30:28 10° N 17:35:44 77° E 17:40:57 10° S
Meteor 1-11 4.4 17:33:32 10° SSW 17:39:22 79° WNW 17:45:10 10° NNE
MINOTAUR 4 R/B 4.4 17:39:13 38° E 17:39:23 38° E 17:42:36 10° S
Cosmos 2219 Rocket 2.7 17:35:09 10° S 17:40:10 35° ESE 17:42:36 24° ENE
Cosmos 2360 Rocket 2.1 17:35:43 10° SSW 17:41:19 69° ESE 17:46:24 13° NE
Lacrosse 4 Rocket 3.2 17:39:51 10° NNW 17:42:50 17° NNE 17:43:22 17° NNE
S3M 4.2 17:38:44 10° SSE 17:44:51 50° E 17:50:58 10° NNE
IRIDIUM 103 4.3 17:39:39 10° N 17:44:54 90° NE 17:50:08 10° S
Cosmos 1570 Rocket 4.3 17:40:53 10° NNW 17:46:04 47° NE 17:48:40 27° ESE
Cosmos 1892 Rocket 3.5 17:41:42 10° S 17:46:07 90° ENE 17:50:32 10° NNE
COSMO-SKYMED 1 3.0 17:43:54 10° N 17:48:13 63° WNW 17:52:31 10° SSW
Cosmos 1340 2.9 17:45:07 10° NNW 17:48:46 66° W 17:52:24 10° S
Cosmos 1461 2.9 17:45:00 10° SW 17:49:20 89° SE 17:51:43 28° NE
Cosmos 2278 Rocket 2.5 17:44:31 10° NNW 17:49:59 45° NE 17:52:11 31° E
Cosmos 676 Rocket 4.3 17:45:06 10° SW 17:50:23 71° WNW 17:55:39 10° NNE
CZ-4C R/B 3.5 17:47:43 10° N 17:51:33 65° WNW 17:55:09 10° SSW
Cosmos 44 Rocket 3.7 17:49:03 10° S 17:53:25 40° ESE 17:54:11 37° E
ATLAS 5 CENTAUR R/B 3.2 17:50:54 10° NW 17:54:33 25° N 17:56:06 21° NE
Cosmos 2322 Rocket 2.3 17:49:22 10° SW 17:54:59 75° NW 18:00:20 12° NNE
BlueWalker 3 1.9 17:51:56 10° W 17:55:49 77° SSW 17:56:49 48° ESE
Cosmos 2333 Rocket 2.2 17:50:59 10° SSW 17:56:32 62° ESE 18:00:15 22° NE
USA 186 3.9 17:59:55 17° N 17:59:55 17° N 18:00:50 10° N
Cosmos 1633 3.2 17:57:20 10° SSW 18:00:35 50° WNW 18:03:53 10° N
Cosmos 1812 Rocket 3.7 17:56:31 10° N 18:00:52 48° ENE 18:01:26 45° E
Cosmos 1606 2.5 17:57:35 10° N 18:01:27 79° ENE 18:03:57 21° SSE
CZ-4 R/B 1.3 17:58:32 10° SSE 18:02:38 86° WSW 18:06:42 10° NNW
Cosmos 2369 Rocket 3.8 18:00:03 10° NNW 18:03:42 17° NNE 18:04:30 17° NNE
Resurs 01 Rocket 3.3 18:08:21 19° NNE 18:08:21 19° NNE 18:10:06 10° N
Cosmos 2315 Rocket 4.2 18:02:31 10° SSE 18:08:31 47° E 18:14:35 10° NNE
CSL-04 Debris 4.1 18:06:36 22° SE 18:10:06 63° ENE 18:15:26 10° NNW
SL-16 R/B 3.1 18:05:46 10° WSW 18:11:14 47° NW 18:16:32 11° NNE
COSMOS 2428 3.2 18:06:22 10° S 18:11:03 37° ESE 18:11:03 37° ESE
SL-4 R/B 2.5 18:08:59 10° W 18:12:21 42° SSW 18:12:46 40° S
Landsat 7 3.8 18:13:13 51° ESE 18:13:56 58° ENE 18:18:35 10° N
CSL-04 Rocket 3.6 18:12:11 32° SE 18:14:34 62° ENE 18:19:57 10° N
Cosmos 2333 4.1 18:10:11 10° SSW 18:15:48 79° ESE 18:18:59 27° NE
Genesis I 3.1 18:13:26 10° SW 18:17:25 83° NW 18:17:45 73° NNE
Cosmos 1626 Rocket 3.3 18:14:50 10° S 18:19:07 71° E 18:19:21 69° ENE
Spot 1 4.4 18:21:46 46° S 18:21:46 46° S 18:24:43 10° S
Cosmos 1943 Rocket 2.9 18:15:32 10° NNW 18:20:42 34° NE 18:20:45 34° NE
Cosmos 1980 Rocket 4.3 18:17:09 10° WNW 18:21:25 21° NNW 18:25:43 10° NNE
Cosmos 1745 Rocket 4.4 18:20:01 10° NNW 18:26:12 64° W 18:32:17 10° S
Okean O Rocket 2.2 18:23:17 10° S 18:27:37 56° W 18:32:00 10° NNW
Lacrosse 5 1.9 18:27:09 10° WSW 18:32:17 77° NNW 18:33:04 62° NE
CZ-2C R/B 3.3 18:29:16 10° N 18:32:51 71° E 18:44:02 10° S
IGS 5A 3.7 18:31:17 34° S 18:32:55 65° WSW 18:37:02 10° NNW
Okean-O 3.1 18:34:20 48° N 18:34:20 48° N 18:37:39 10° N
Cosmos 2322 3.6 18:30:32 10° SSW 18:36:13 70° ESE 18:37:02 61° ENE
Okean 1-7 Rocket 3.6 18:34:10 10° SSW 18:38:36 81° WNW 18:39:09 67° N
Cosmos 1709 Rocket 4.1 18:38:19 10° NNW 18:44:27 71° W 18:50:31 10° S
IRS-1C Rocket 3.9 18:44:48 75° ENE 18:44:48 75° ENE 18:49:59 10° NNW
GEOS 3 Rocket 4.4 18:51:29 39° NNE 18:51:29 39° NNE 18:56:05 10° NW
Cosmos 909 Rocket 4.2 18:45:04 10° NW 18:52:41 62° NE 18:53:24 59° ENE
Gblst 52 Del rocket 4.0 18:49:04 10° W 18:54:30 75° S 18:54:30 75° S
ATLAS CENTAUR R/B 3.5 18:54:10 10° WNW 18:57:33 20° N 18:57:41 20° N
SPOT 1/Viking Rocket 4.1 19:00:47 48° N 19:00:47 48° N 19:04:31 10° NNW
Resurs 1-3 4.4 19:01:52 48° NW 19:01:52 48° NW 19:05:19 10° NNW
Cosmos 2184 Rocket 4.1 18:55:41 10° N 19:00:59 57° NNE 19:00:59 57° NNE
Cosmos 2074 Rocket 4.1 18:56:39 10° N 19:02:06 61° NNE 19:02:06 61° NNE
Cosmos-2242 4.4 19:09:22 10° NNW 19:12:36 35° WNW 19:12:36 35° WNW
Lacrosse 4 Rocket 3.7 19:18:05 10° NNW 19:19:34 20° NNW 19:19:34 20° NNW
Cosmos 2219 Rocket 2.8 19:18:29 10° SW 19:23:57 53° NW 19:24:23 52° NNW
Cosmos 2360 Rocket 3.7 19:20:44 10° WSW 19:25:47 32° NW 19:28:12 23° N
Cosmos 2285 Rocket 4.5 19:27:43 10° NNW 19:32:29 52° NNW 19:32:29 52° NNW
Cosmos 2278 Rocket 3.1 19:28:45 10° NW 19:34:05 45° WSW 19:34:05 45° WSW
ATLAS 5 CENTAUR R/B 3.7 19:35:24 10° NW 19:37:28 25° NNW 19:37:28 25° NNW
Cosmos 2322 Rocket 4.2 19:35:33 10° W 19:40:00 23° NNW 19:42:10 19° N
Cosmos 2333 Rocket 3.5 19:36:00 10° WSW 19:41:11 35° NW 19:42:19 32° NNW
Resurs 01 Rocket 4.1 19:45:54 17° NNW 19:45:54 17° NNW 19:47:02 10° NNW
Cosmos 2369 Rocket 3.9 19:43:50 10° NNW 19:46:17 25° N 19:46:17 25° N
COSMOS 2428 4.2 19:50:10 10° SW 19:53:08 30° WSW 19:53:08 30° WSW
SL-16 R/B 4.4 19:52:57 10° WNW 19:56:47 18° NNW 19:58:25 16° N
Cosmos 1943 Rocket 3.7 19:59:14 10° NW 20:02:17 32° NW 20:02:17 32° NW
Lacrosse 5 4.2 20:10:38 10° WNW 20:12:17 20° WNW 20:12:17 20° WNW
